{"data":{"norad_id":62913,"intl_designator":"2025-027G","name":"STARLINK-11564 [DTC]","alt_names":[],"object_type":"PAYLOAD","status":"ACTIVE","operator":null,"country":"US","launch_date":"2025-02-08","launch_site_code":"AFETR","launch_vehicle":null,"mission":null,"orbit_class":"UNKNOWN","rcs_meters":null,"size_class":null,"mass_kg":null,"dimensions":null,"purposes":["comms"],"wikipedia_slug":null,"has_3d_model":false,"image_url":null,"decayed_at":null,"tle_current":{"epoch":"2026-09-21T16:13:18.932448Z","epoch_age_seconds":66672,"freshness":"FRESH","line1":"1 62913U 25027G   26264.67591357  .00154833  00000+0  11865-2 0  9996","line2":"2 62913  42.9991 246.5060 0000778  56.3551 303.7390 15.70866799 93978","mean_motion":15.70866799,"eccentricity":7.78e-5,"inclination_deg":42.9991,"raan_deg":246.506,"arg_perigee_deg":56.3551,"mean_anomaly_deg":303.739,"bstar":0.0011865,"rev_number":9397,"period_min":91.669134576954,"perigee_km":355.89451768473,"apogee_km":356.94241451526,"semimajor_km":6734.5554661,"source":"CELESTRAK","updated_at":"2026-09-22T09:00:49.707683Z"}}}